Weather Roundup
Issued by NWS Springfield, MO

Home | Current Version | Previous Version | Text Only | Print | Product List | Glossary On
Versions: 1 2 3 4 5 6 7 8 9 10 11 12 13 14 15 16 17 18 19 20 21 22 23 24 25 26 27 28 29 30 31 32 33 34 35 36 37 38 39 40 41 42 43 44 45 46 47 48 49 50
000
NZUS99 KSGF 151207
HRRSGF

HOURLY WEATHER
NATIONAL WEATHER SERVICE SPRINGFIELD MO
600 AM CST SUN JAN 15 2017

......SGF CWA......

CITY           SKY/WX    TMP DP  RH WIND       PRES   REMARKS
SPRINGFIELD    LGT RAIN  37  35  92 E7        30.28F WCI  32
6HR MIN TEMP:  34; 6HR MAX TEMP:  37; 6HR PCP:  0.49;

JOPLIN         LGT RAIN  33  33 100 CALM      30.30S FOG
6HR MIN TEMP:  32; 6HR MAX TEMP:  33; 6HR PCP:  0.36;

WEST PLAINS    LGT RAIN  35  34  96 NE5       30.34S FOG     WCI  31
6HR MIN TEMP:  35; 6HR MAX TEMP:  35; 6HR PCP:  0.07;

ROLLA          MIX PCPN  31  31 100 NE7       30.35S FOG     WCI  24
6HR MIN TEMP:  31; 6HR MAX TEMP:  32; 6HR PCP:  0.13;

OSAGE BEACH    MIX PCPN  32  31  96 CALM      30.37F
BRANSON        FOG       36  36 100 E7        30.30S VSB 1/4 WCI  30

......SURROUNDING SGF CWA......

CITY           SKY/WX    TMP DP  RH WIND       PRES   REMARKS
CHANUTE        FRZ RAIN  33  31  92 E6        30.32S WCI  28
PARSONS        FRZ RAIN  33  32  96 NE6       30.31F FOG     WCI  28
EMPORIA        FRZ RAIN  30  29  96 E8        30.32R FOG     WCI  22
GROVE OK       RAIN      37  37 100 CALM      30.29F
ROGERS AR      LGT RAIN  40  40 100 E6        30.26F FOG
SILOAM SPRINGS CLOUDY    41  39  93 N5        30.26S
HARRISON AR    FOG       39  39 100 SE10      30.29S VSB 1/4 WCI  32
NEAR YELLVILLE CLOUDY    39  36  87 E3        30.31R

......KANSAS AND MISSOURI......

CITY           SKY/WX    TMP DP  RH WIND       PRES   REMARKS
KANSAS CTY INT FRZ DRZL  30  26  85 E7        30.35F FOG     WCI  23
DOWNTOWN KC    CLOUDY    31  29  92 NE7       30.36F FOG     WCI  24
COLUMBIA       FRZ RAIN  31  29  92 NE9       30.37F FOG     WCI  23
SEDALIA        CLOUDY    31  29  92 E7        30.37F FOG     WCI  24
ST JOSEPH      CLOUDY    30  28  92 E7        30.38F WCI  23
ST LOUIS       FRZ RAIN  33  30  88 NE3       30.41S FOG
SPIRIT OF STL  RAIN      32  31  96 NE3       30.42R FOG
KIRKSVILLE     CLOUDY    27  25  92 E3        30.40F FOG
WICHITA        FRZ RAIN  32  30  92 NE8       30.29F WCI  25
TOPEKA         CLOUDY    31  27  85 NE6       30.34F FOG     WCI  25
OLATHE         FRZ RAIN  29  29 100 E7        30.34S FOG     WCI  22

......TENNESSEE......

CITY           SKY/WX    TMP DP  RH WIND       PRES   REMARKS
MEMPHIS        FOG       45  44  97 NE5       30.34R VSB 1
NASHVILLE      CLOUDY    45  42  89 N5        30.36F FOG

......ARKANSAS.......

CITY           SKY/WX    TMP DP  RH WIND       PRES   REMARKS
FAYETTEVILLE   LGT RAIN  41  41 100 NE3       30.25F FOG
FT SMITH       CLOUDY    47  46  97 E6        30.27S FOG
LITTLE ROCK    FOG       41  41 100 NE8       30.33F VSB 1/4

......OKLAHOMA.......

CITY           SKY/WX    TMP DP  RH WIND       PRES   REMARKS
TULSA          LGT RAIN  34  34 100 N7        30.30S FOG     WCI  28
PONCA CITY     RAIN      33  31  92 NE3       30.29F FOG
MCALESTER      FOG       38  36  92 N3        30.27S VSB 1/2
OKLAHOMA CITY  FRZ DRZL  32  32 100 NE7       30.24F VSB 1   WCI  26

......IOWA............

CITY           SKY/WX    TMP DP  RH WIND       PRES   REMARKS
DES MOINES     CLOUDY    28  14  55 E3        30.41S
QUAD CITIES    MOCLDY    24  17  74 E5        30.43F WCI  18

......ILLINOIS........

CITY           SKY/WX    TMP DP  RH WIND       PRES   REMARKS
QUINCY         CLOUDY    28  25  88 NE7       30.41F FOG     WCI  21
CHICAGO        CLOUDY    20  16  84 NW3       30.42F




USA.gov is the U.S. government's official web portal to all federal, state and local government web resources and services.